Powrót do katalogu

DMSP 5D-2 F11 DEB

AktywnySSO
NORAD 28329·DEBRIS·🇺🇸 United States

Wystrzelony Nov 28, 1991 z Vandenberg Space Force Base

Loading…

Następne Przeloty (najbliższe 24 godziny)

TLE

ŚwieżeSource: Space-Track

Epoka: Sep 13, 2026, 11:32 UTC

1 28329U 91082AS  26256.48119123  .00002978  00000-0  10036-2 0  9992
2 28329  98.9025 345.1292 0065107 314.1502  45.4340 14.36616003150590

Śledź DMSP 5D-2 F11 DEB w czasie rzeczywistym z AllMySat

Download on the App Store